EW8682 Weather Reports


Display with metric or nautical units.
time (UTC)temp
F
wind
direction
speed
MPH
gust
MPH
rain 1hr
in
rain 24hr
in
rain mn
in
humidity
%
barometer
mb
20260502190005 73 189 2.0 6.0 0.00 0.00 0.00 54 1005.7
20260502184502 73 178 2.0 5.0 0.00 0.00 0.00 57 1005.6
20260502183100 70 185 1.0 6.0 0.00 0.00 0.00 61 1005.8
20260502181556 69 186 1.0 5.0 0.00 0.00 0.00 63 1006.0
20260502163034 61 193 2.0 4.0 0.00 0.00 0.00 80 1007.0
20260502161527 60 178 1.0 4.0 0.00 0.00 0.00 81 1006.7
20260502151537 56 126 0.0 2.0 0.00 0.00 0.00 85 1006.1
20260502130104 49 94 0.0 3.0 0.00 0.00 0.00 88 1005.7
20260502123049 50 94 1.0 2.0 0.00 0.00 0.00 87 1005.6
20260502121547 50 94 0.0 3.0 0.00 0.00 0.00 87 1005.5
20260502114545 51 97 0.0 3.0 0.00 0.00 0.00 89 1005.2
20260502113050 51 97 0.0 2.0 0.00 0.00 0.00 89 1004.9
20260502111547 51 98 1.0 2.0 0.00 0.00 0.00 89 1004.9
20260502110044 51 98 1.0 3.0 0.00 0.00 0.00 90 1004.9
20260502104540 52 98 1.0 3.0 0.00 0.00 0.00 90 1004.9
20260502103040 52 98 1.0 3.0 0.00 0.00 0.00 90 1004.9
20260502101541 51 145 1.0 3.0 0.00 0.00 0.00 89 1004.9
20260502091531 52 148 0.0 3.0 0.00 0.00 0.00 88 1005.0
20260502071513 55 157 1.0 3.0 0.00 0.00 0.00 88 1006.0
20260502070029 55 158 0.0 2.0 0.00 0.00 0.00 87 1005.9
20260502064510 55 158 1.0 3.0 0.00 0.00 0.00 87 1005.9
20260502063025 55 186 1.0 3.0 0.00 0.00 0.00 86 1005.9
20260502061511 56 187 0.0 2.0 0.00 0.00 0.00 85 1005.7
20260502060009 56 194 1.0 3.0 0.00 0.00 0.00 85 1005.7
20260502054526 57 194 0.0 1.0 0.00 0.00 0.00 84 1005.7
20260502053008 58 194 0.0 2.0 0.00 0.00 0.00 83 1005.7
20260502051508 58 194 0.0 1.0 0.00 0.00 0.00 82 1005.8
20260502050009 59 194 0.0 0.0 0.00 0.00 0.00 81 1005.7
20260502044506 60 194 0.0 2.0 0.00 0.00 0.00 80 1005.5
20260502043005 61 194 0.0 1.0 0.00 0.00 0.00 79 1005.2
20260502041505 62 194 0.0 2.0 0.00 0.00 0.00 77 1005.0
20260502040004 63 194 0.0 1.0 0.00 0.00 0.00 76 1004.8
20260502034503 64 194 0.0 2.0 0.00 0.00 0.00 74 1004.5
20260502033003 65 194 0.0 2.0 0.00 0.00 0.00 71 1004.3
20260502031503 67 195 0.0 0.0 0.00 0.00 0.00 67 1004.1
20260502030002 69 195 0.0 2.0 0.00 0.00 0.00 65 1004.0
20260502024502 70 195 0.0 0.0 0.00 0.00 0.00 63 1003.8
20260502023002 71 195 0.0 2.0 0.00 0.00 0.00 61 1003.8
20260502021600 72 195 1.0 3.0 0.00 0.00 0.00 59 1003.7
20260502014558 74 192 1.0 3.0 0.00 0.00 0.00 56 1003.6
20260502013100 74 194 2.0 4.0 0.00 0.00 0.00 55 1003.6
20260502011557 75 194 2.0 5.0 0.00 0.00 0.00 54 1003.5
20260502010056 75 193 2.0 6.0 0.00 0.00 0.00 54 1003.5
20260502004556 76 182 2.0 6.0 0.00 0.00 0.00 52 1003.5
20260502003055 77 174 3.0 7.0 0.00 0.00 0.00 52 1003.5
20260502001617 77 169 3.0 7.0 0.00 0.00 0.00 50 1003.4
20260502000106 79 194 3.0 8.0 0.00 0.00 0.00 48 1003.3
20260501234550 79 210 4.0 9.0 0.00 0.00 0.00 47 1003.3
20260501233050 79 169 2.0 8.0 0.00 0.00 0.00 46 1003.3
20260501231548 80 181 2.0 6.0 0.00 0.00 0.00 44 1003.3
20260501230047 80 223 2.0 10.0 0.00 0.00 0.00 45 1003.4
20260501224602 80 179 3.0 9.0 0.00 0.00 0.00 45 1003.6
20260501223041 80 177 0.0 4.0 0.00 0.00 0.00 44 1003.7
20260501221537 80 195 1.0 8.0 0.00 0.00 0.00 44 1004.0
20260501220040 79 177 0.0 8.0 0.00 0.00 0.00 45 1004.4
20260501214531 79 176 2.0 6.0 0.00 0.00 0.00 44 1004.6
20260501213029 78 236 3.0 7.0 0.00 0.00 0.00 46 1004.7
20260501211527 78 218 2.0 6.0 0.00 0.00 0.00 48 1004.9
20260501210026 77 239 1.0 6.0 0.00 0.00 0.00 49 1005.1
20260501204524 76 222 2.0 7.0 0.00 0.00 0.00 50 1005.2
20260501203020 75 190 2.0 6.0 0.00 0.00 0.00 51 1005.3
20260501201521 74 174 1.0 8.0 0.00 0.00 0.00 53 1005.4
20260501200031 74 183 1.0 6.0 0.00 0.00 0.00 54 1005.5
20260501194517 73 192 2.0 5.0 0.00 0.00 0.00 55 1005.6
20260501193010 72 206 1.0 6.0 0.00 0.00 0.00 58 1005.7
20260501191506 71 175 2.0 7.0 0.00 0.00 0.00 59 1006.0